Simultaneous Nadir Overpasses (SNOs) Predictions

Prediction of SNOs between GOES-15 and FY3D Satellite Orbit:

Table of predicted SNOs for the next 14.0 days since TLE Epoch: 7/3/2021
Index Date Time (GOES-15) GOES-15 Lat,Lon FY3D Lat,Lon Distance(km) Time Diff (sec)
1 07/03/2021 21:59:22 0.01,-128.12 0.69,-125.04 350.73 80
2 07/05/2021 10:18:09 -0.03,-128.16 0.44,-130.22 234.86 80
3 07/06/2021 10:01:52 -0.02,-128.13 -0.60,-125.63 285.32 80
4 07/07/2021 22:20:48 0.04,-128.00 -0.57,-130.84 323.18 80
5 07/08/2021 22:04:30 0.04,-127.97 0.42,-126.25 196.81 80
6 07/10/2021 10:23:17 -0.06,-128.01 0.72,-131.42 389.68 80
7 07/11/2021 10:07:00 -0.05,-127.97 -0.33,-126.84 129.86 80
8 07/12/2021 22:25:55 0.07,-127.83 -0.90,-132.04 479.85 80
9 07/13/2021 22:09:37 0.06,-127.79 0.16,-127.45 39.73 80
10 07/16/2021 10:09:26 -0.06,-127.78 -0.00,-128.03 28.14 80
